Location: Lake Sonoma
(38.7200°N, 123.0564°W)
Time: 11:50:41
(UTC-07:00)

Amateur Radio Satellites - All Passes

Search period start: 02 September 2014 11:20
Search period end: 03 September 2014 11:20
Location: Lake Sonoma, 38.7200°N, 123.0564°W

Satellite Date Start Highest point End Downlink Frequencies (MHz)
Time Altitude Azimuth
ISS 02 Sep 11:31:08 11:33:29 18° 337° (NNW) 11:35:50 145.800 FM
PANSAT 02 Sep 11:40:13 11:42:39 16° 172° (S) 11:45:04 not established
UKube-1 02 Sep 11:49:14 11:52:22 20° 293° (WNW) 11:55:29 145.840 MHz, 145.915 MHz
Oscar 11 02 Sep 11:51:53 11:55:31 26° 291° (WNW) 11:59:08 145.825 FM, Beacon 2401.500 USB
SO-50 02 Sep 12:11:10 12:15:54 56° 56° (NE) 12:20:40 436.795 FM
FUNcube-1 02 Sep 12:25:23 12:29:21 30° 290° (WNW) 12:33:21 145.950 - 145.970 MHz USB
HO-68 02 Sep 12:31:34 12:35:10 15° 306° (NW) 12:38:46 435.675 MHz FM
Oscar 19 02 Sep 12:39:20 12:42:16 15° 62° (ENE) 12:45:12 437.125 CW, 437.150 USB
MaSat-1 02 Sep 13:04:18 13:09:11 86° 114° (ESE) 13:14:22 437.345 MHz
JAS-1B 02 Sep 13:08:07 13:15:26 26° 61° (ENE) 13:22:08 435.800 - 435.900 CW/SSB
Oscar 16 02 Sep 13:12:48 13:17:21 33° 68° (ENE) 13:21:56 437.025 USB, Beacon 2401.1428
ITAMSAT 1 02 Sep 13:18:23 13:21:25 16° 62° (ENE) 13:24:26 435.822 SSB
RS-15 02 Sep 13:18:41 13:25:18 17° 10° (N) 13:32:00 29.354 - 29.394 USB, Beacon 29.352 USB
PANSAT 02 Sep 13:19:38 13:22:12 17° 185° (S) 13:24:46 not established
Uribyol 2 02 Sep 13:26:47 13:30:28 20° 64° (ENE) 13:34:09 436.500 FM
AO-27 02 Sep 13:46:34 13:50:59 30° 68° (ENE) 13:55:25 436.795 MHz FM
SO-50 02 Sep 13:53:04 13:56:02 16° 251° (WSW) 13:59:00 436.795 FM
UOSAT-12 02 Sep 13:54:24 13:59:00 49° 54° (NE) 14:03:31 437.025 FM, 437.400 FM
Oscar 19 02 Sep 14:15:54 14:21:01 65° 258° (WSW) 14:26:12 437.125 CW, 437.150 USB
AO-Echo 02 Sep 14:19:28 14:24:25 65° 74° (ENE) 14:29:15 ?
Gurwin Techsat 1B 02 Sep 14:31:24 14:36:09 35° 69° (ENE) 14:40:55 435.225 FM
MaSat-1 02 Sep 14:44:13 14:46:54 14° 312° (NW) 14:49:38 437.345 MHz
ISS 02 Sep 14:47:26 14:49:15 14° 18° (NNE) 14:51:05 145.800 FM
Oscar 16 02 Sep 14:52:17 14:56:40 28° 264° (W) 15:01:06 437.025 USB, Beacon 2401.1428
ITAMSAT 1 02 Sep 14:55:15 15:00:21 63° 258° (WSW) 15:05:30 435.822 SSB
JAS-1B 02 Sep 14:55:24 15:05:13 79° 256° (WSW) 15:13:59 435.800 - 435.900 CW/SSB
Uribyol 2 02 Sep 15:04:37 15:09:34 47° 260° (W) 15:14:33 436.500 FM
Uosat F 02 Sep 15:16:07 15:18:00 12° 61° (ENE) 15:19:53 435.120 FM
TMSAT-1 02 Sep 15:20:18 15:25:33 73° 74° (ENE) 15:30:51 436.925 FM
AO-27 02 Sep 15:25:50 15:30:24 31° 263° (W) 15:34:59 436.795 MHz FM
AO-7 02 Sep 15:28:05 15:35:20 35° 60° (ENE) 15:42:34 29.400 - 29.500 MHz
Sapphire 02 Sep 15:29:43 15:32:50 16° 104° (ESE) 15:35:57 437.095 MHz 1200 baud AX-25 AFSK
RS-15 02 Sep 15:31:55 15:42:06 39° 43° (NE) 15:52:33 29.354 - 29.394 USB, Beacon 29.352 USB
UOSAT-12 02 Sep 15:35:36 15:38:45 18° 251° (WSW) 15:41:52 437.025 FM, 437.400 FM
PCSat 02 Sep 15:56:58 16:01:39 31° 109° (ESE) 16:06:23 145.825 MHz
AO-Echo 02 Sep 16:01:27 16:03:33 13° 269° (W) 16:05:39 ?
Gurwin Techsat 1B 02 Sep 16:11:38 16:16:07 28° 265° (W) 16:20:37 435.225 FM
ISS 02 Sep 16:23:14 16:26:32 60° 36° (NE) 16:29:50 145.800 FM
OPAL 02 Sep 16:47:56 16:51:36 19° 95° (E) 16:55:14 ?
Uosat F 02 Sep 16:51:06 16:56:06 79° 257° (WSW) 17:01:08 435.120 FM
JAS-1B 02 Sep 16:51:09 16:56:30 16° 271° (W) 17:01:38 435.800 - 435.900 CW/SSB
TMSAT-1 02 Sep 17:03:49 17:05:59 12° 270° (W) 17:08:10 436.925 FM
Sapphire 02 Sep 17:10:17 17:15:38 65° 300° (WNW) 17:21:03 437.095 MHz 1200 baud AX-25 AFSK
JAS-2 02 Sep 17:13:56 17:18:13 21° 66° (ENE) 17:22:14 435.800 - 435.900 CW/SSB, 435.910 FM
AO-7 02 Sep 17:19:41 17:27:45 53° 258° (WSW) 17:35:52 29.400 - 29.500 MHz
Hamsat 02 Sep 17:29:57 17:33:17 22° 68° (ENE) 17:36:39 145.90 MHz
PCSat 02 Sep 17:40:02 17:44:58 35° 306° (NW) 17:49:55 145.825 MHz
RS-15 02 Sep 17:44:10 17:55:05 65° 246° (WSW) 18:06:30 29.354 - 29.394 USB, Beacon 29.352 USB
ISS 02 Sep 18:01:17 18:02:54 13° 232° (SW) 18:04:30 145.800 FM
OPAL 02 Sep 18:25:40 18:30:42 49° 291° (WNW) 18:35:41 ?
STRAND 1 02 Sep 18:39:11 18:40:03 10° 90° (E) 18:40:56 ?
JAS-2 02 Sep 18:57:08 19:03:03 50° 260° (W) 19:08:24 435.800 - 435.900 CW/SSB, 435.910 FM
Sapphire 02 Sep 18:58:35 19:00:09 11° 320° (NW) 19:01:43 437.095 MHz 1200 baud AX-25 AFSK
Hamsat 02 Sep 19:05:15 19:09:03 30° 264° (W) 19:12:55 145.90 MHz
SO-67 02 Sep 19:17:42 19:21:01 46° 75° (ENE) 19:24:22 435.3500 MHz FM
HO-68 02 Sep 19:25:51 19:28:38 13° 52° (NE) 19:31:25 435.675 MHz FM
RS-15 02 Sep 20:02:13 20:05:15 11° 264° (W) 20:08:20 29.354 - 29.394 USB, Beacon 29.352 USB
STRAND 1 02 Sep 20:14:41 20:19:48 81° 285° (WNW) 20:24:54 ?
UKube-1 02 Sep 21:06:59 21:10:36 27° 69° (ENE) 21:14:14 145.840 MHz, 145.915 MHz
HO-68 02 Sep 21:07:59 21:15:03 69° 71° (ENE) 21:22:08 435.675 MHz FM
Oscar 11 02 Sep 21:10:18 21:13:14 18° 67° (ENE) 21:16:12 145.825 FM, Beacon 2401.500 USB
MaSat-1 02 Sep 21:24:48 21:27:19 15° 48° (NE) 21:29:40 437.345 MHz
Saudisat 1A 02 Sep 21:31:09 21:34:53 28° 113° (ESE) 21:38:39 436.775 MHz
FUNcube-1 02 Sep 21:45:38 21:48:15 16° 66° (ENE) 21:50:54 145.950 - 145.970 MHz USB
KITSAT 1 02 Sep 22:32:35 22:39:55 40° 109° (ESE) 22:47:16 435.175 FM
UKube-1 02 Sep 22:43:10 22:46:44 25° 264° (W) 22:50:19 145.840 MHz, 145.915 MHz
Oscar 11 02 Sep 22:45:05 22:49:07 38° 262° (W) 22:53:12 145.825 FM, Beacon 2401.500 USB
HO-68 02 Sep 22:58:16 23:03:17 20° 267° (W) 23:08:19 435.675 MHz FM
MaSat-1 02 Sep 23:00:31 23:04:49 54° 250° (WSW) 23:08:29 437.345 MHz
Saudisat 1A 02 Sep 23:10:31 23:14:23 29° 310° (NW) 23:18:16 436.775 MHz
Oscar 10/S400 02 Sep 23:15:21 23:47:45 66° 189° (S) 09:04:45 145.825 - 145.975 CW/USB, Beacon 145.810 USB
FUNcube-1 02 Sep 23:20:21 23:24:17 40° 262° (W) 23:28:20 145.950 - 145.970 MHz USB
AO-40 03 Sep 00:04:27 02:00:10 29° 214° (SW) 06:03:00 Beacon 2401.320
Sapphire 03 Sep 00:18:17 00:20:38 13° 42° (NE) 00:22:58 437.095 MHz 1200 baud AX-25 AFSK
KITSAT 1 03 Sep 00:27:28 00:35:10 47° 308° (NW) 00:42:55 435.175 FM
PCSat 03 Sep 00:46:09 00:50:17 22° 49° (NE) 00:54:24 145.825 MHz
Oscar 16 03 Sep 01:27:40 01:29:45 12° 90° (E) 01:31:50 437.025 USB, Beacon 2401.1428
Sapphire 03 Sep 01:59:33 02:05:00 75° 61° (ENE) 02:10:24 437.095 MHz 1200 baud AX-25 AFSK
AO-27 03 Sep 02:03:18 02:04:34 11° 90° (E) 02:05:50 436.795 MHz FM
SO-50 03 Sep 02:25:53 02:29:25 23° 111° (ESE) 02:33:01 436.795 FM
AO-Echo 03 Sep 02:28:44 02:32:20 22° 95° (E) 02:35:58 ?
PCSat 03 Sep 02:28:45 02:34:04 57° 247° (WSW) 02:39:21 145.825 MHz
Oscar 19 03 Sep 02:28:56 02:34:00 50° 100° (E) 02:39:00 437.125 CW, 437.150 USB
KITSAT 1 03 Sep 02:29:17 02:32:56 13° 333° (NNW) 02:36:36 435.175 FM
JAS-1B 03 Sep 02:45:26 02:50:53 29° 93° (E) 02:55:50 435.800 - 435.900 CW/SSB
Gurwin Techsat 1B 03 Sep 02:50:08 02:53:07 15° 91° (E) 02:56:05 435.225 FM
Oscar 16 03 Sep 03:04:24 03:09:36 72° 286° (WNW) 03:14:45 437.025 USB, Beacon 2401.1428
ITAMSAT 1 03 Sep 03:09:28 03:14:32 52° 100° (E) 03:19:35 435.822 SSB
Uribyol 2 03 Sep 03:18:24 03:23:36 68° 102° (ESE) 03:28:46 436.500 FM
TMSAT-1 03 Sep 03:37:54 03:42:37 32° 97° (E) 03:47:19 436.925 FM
AO-27 03 Sep 03:39:26 03:44:38 80° 285° (WNW) 03:49:49 436.795 MHz FM
Sapphire 03 Sep 03:45:14 03:47:42 13° 257° (WSW) 03:50:11 437.095 MHz 1200 baud AX-25 AFSK
OPAL 03 Sep 04:01:17 04:05:39 30° 65° (ENE) 04:10:05 ?
UOSAT-12 03 Sep 04:05:31 04:08:48 20° 110° (ESE) 04:12:08 437.025 FM, 437.400 FM
SO-50 03 Sep 04:05:39 04:09:46 35° 308° (NW) 04:13:59 436.795 FM
AO-Echo 03 Sep 04:06:56 04:11:11 35° 290° (WNW) 04:15:28 ?
Oscar 19 03 Sep 04:09:18 04:12:55 20° 296° (WNW) 04:16:32 437.125 CW, 437.150 USB
Gurwin Techsat 1B 03 Sep 04:28:14 04:33:29 62° 287° (WNW) 04:38:42 435.225 FM
JAS-1B 03 Sep 04:35:48 04:41:40 36° 295° (WNW) 04:46:55 435.800 - 435.900 CW/SSB
ITAMSAT 1 03 Sep 04:50:04 04:53:36 19° 296° (WNW) 04:57:08 435.822 SSB
Uribyol 2 03 Sep 04:59:40 05:02:28 15° 298° (WNW) 05:05:17 436.500 FM
Uosat F 03 Sep 05:00:26 05:05:00 35° 98° (E) 05:09:33 435.120 FM
TMSAT-1 03 Sep 05:17:53 05:22:26 30° 292° (WNW) 05:26:58 436.925 FM
AO-7 03 Sep 05:22:25 05:30:36 59° 103° (ESE) 05:38:43 29.400 - 29.500 MHz
OPAL 03 Sep 05:39:57 05:44:25 31° 261° (W) 05:48:58 ?
UOSAT-12 03 Sep 05:44:12 05:48:36 44° 306° (NW) 05:53:07 437.025 FM, 437.400 FM
STRAND 1 03 Sep 05:52:56 05:55:47 15° 62° (ENE) 05:58:38 ?
RS-15 03 Sep 05:57:23 06:05:10 23° 101° (ESE) 06:12:48 29.354 - 29.394 USB, Beacon 29.352 USB
Saudisat 1A 03 Sep 05:59:11 06:02:17 18° 46° (NE) 06:05:22 436.775 MHz
JAS-2 03 Sep 06:07:32 06:11:21 19° 94° (E) 06:15:22 435.800 - 435.900 CW/SSB, 435.910 FM
KITSAT 1 03 Sep 06:27:20 06:32:43 19° 35° (NE) 06:38:05 435.175 FM
Uosat F 03 Sep 06:39:33 06:43:36 25° 293° (WNW) 06:47:39 435.120 FM
Hamsat 03 Sep 06:51:49 06:56:04 51° 99° (E) 07:00:14 145.90 MHz
AO-7 03 Sep 07:15:57 07:22:53 31° 301° (WNW) 07:29:48 29.400 - 29.500 MHz
STRAND 1 03 Sep 07:29:22 07:34:25 64° 258° (WSW) 07:39:29 ?
Saudisat 1A 03 Sep 07:37:52 07:42:10 52° 243° (WSW) 07:46:25 436.775 MHz
JAS-2 03 Sep 07:51:30 07:56:39 50° 288° (WNW) 08:02:15 435.800 - 435.900 CW/SSB, 435.910 FM
RS-15 03 Sep 08:04:58 08:16:06 85° 301° (WNW) 08:27:05 29.354 - 29.394 USB, Beacon 29.352 USB
SO-67 03 Sep 08:15:28 08:18:56 70° 100° (E) 08:22:22 435.3500 MHz FM
KITSAT 1 03 Sep 08:21:36 08:29:41 71° 58° (ENE) 08:37:42 435.175 FM
Hamsat 03 Sep 08:29:23 08:31:33 14° 295° (WNW) 08:33:42 145.90 MHz
HO-68 03 Sep 08:40:28 08:43:04 12° 89° (E) 08:45:41 435.675 MHz FM
ISS 03 Sep 09:04:47 09:07:55 40° 135° (SE) 09:11:04 145.800 FM
KITSAT 1 03 Sep 10:18:17 10:24:18 24° 256° (WSW) 10:30:19 435.175 FM
RS-15 03 Sep 10:21:17 10:30:13 28° 327° (NNW) 10:39:12 29.354 - 29.394 USB, Beacon 29.352 USB
HO-68 03 Sep 10:24:31 10:31:43 81° 105° (ESE) 10:38:54 435.675 MHz FM
UKube-1 03 Sep 10:31:48 10:36:06 59° 101° (E) 10:40:22 145.840 MHz, 145.915 MHz
Oscar 11 03 Sep 10:33:50 10:37:58 41° 98° (E) 10:42:04 145.825 FM, Beacon 2401.500 USB
ISS 03 Sep 10:41:56 10:44:44 24° 332° (NNW) 10:47:33 145.800 FM
SO-50 03 Sep 10:58:18 11:01:46 19° 45° (NE) 11:05:15 436.795 FM
FUNcube-1 03 Sep 11:10:19 11:14:40 42° 98° (E) 11:19:02 145.950 - 145.970 MHz USB
PANSAT 03 Sep 11:15:04 11:17:32 16° 173° (S) 11:20:01 not established
